Change the Weather History Date:

Thursday, December 31, 2009

  Actual Average Record
Temperature  
Mean Temperature 51 °F 49 °F  
Max Temperature 57 °F 59 °F 81 °F (1984)
Min Temperature 45 °F 39 °F 13 °F (1983)
Degree Days  
Heating Degree Days 14 16  
Month to date heating degree days 534 465  
Since 1 July heating degree days 831 789  
Moisture  
Dew Point 46 °F    
Average Humidity 83    
Maximum Humidity 93    
Minimum Humidity 72    
Precipitation  
Precipitation 0.05 in 0.13 in 2.39 in (1911)
Month to date precipitation 8.51 6.12  
Year to date precipitation 56.17 55.92  
Snow  
Snow 0.00 in - 0.00 in ()
Month to date snowfall 0.2  
Since 1 July snowfall 0.2  
Snow Depth 0.00 in    
Sea Level Pressure  
Sea Level Pressure 30.12 in    
Wind  
Wind Speed 4 mph (North)    
Max Wind Speed 12 mph    
Max Gust Speed 15 mph    
Visibility 6 miles    
Events Rain    
T = Trace of Precipitation, MM = Missing Value Source: NWS Daily Summary

Daily Weather History Graph

Daily Weather History Graph

Search for Another Location

Airport or City:

Trip Planner

Search our weather history database for the weather conditions in past years. The results will help you decide how hot, cold, wet, or windy it might be!

Date:

Astronomy

Dec. 31, 2009 Rise Set
Actual Time 7:09 AM CST 5:17 PM CST
Civil Twilight 6:42 AM CST 5:44 PM CST
Nautical Twilight 6:12 AM CST 6:14 PM CST
Astronomical Twilight 5:42 AM CST 6:44 PM CST
Moon 5:23 PM CST (12/31) 7:01 AM CST (12/31)
Length of Visible Light 11h 02m
Length of Day
10h 08m
Full, 100% of the Moon is Illuminated
Dec 31
Full
Dec 31
Full
Jan 7
Last Quarter
Jan 15
New
Jan 23
First Quarter

Hourly Weather History & Observations

Time (CST) Temp. Windchill Dew Point Humidity Pressure Visibility Wind Dir Wind Speed Gust Speed Precip Events Conditions
12:53 AM 48.0 °F - 46.9 °F 96% 30.05 in 3.0 mi Calm Calm - N/A   Overcast
1:30 AM 48.2 °F - 46.4 °F 93% 30.03 in 7.0 mi WNW 3.5 mph - N/A   Overcast
1:53 AM 48.0 °F - 46.0 °F 93% 30.04 in 10.0 mi Variable 3.5 mph - N/A   Overcast
2:53 AM 48.0 °F - 45.0 °F 89% 30.05 in 10.0 mi Calm Calm - N/A   Overcast
3:53 AM 48.0 °F - 45.0 °F 89% 30.05 in 10.0 mi Calm Calm - N/A   Overcast
4:53 AM 46.9 °F - 45.0 °F 93% 30.06 in 10.0 mi West 3.5 mph - N/A   Overcast
5:43 AM 46.4 °F - 44.6 °F 93% 30.06 in 9.0 mi Calm Calm - N/A   Overcast
5:53 AM 46.0 °F - 45.0 °F 96% 30.07 in 8.0 mi Calm Calm - N/A   Overcast
6:53 AM 46.0 °F - 45.0 °F 96% 30.09 in 5.0 mi Calm Calm - N/A   Overcast
7:37 AM 46.4 °F - 44.6 °F 93% 30.09 in 2.5 mi Calm Calm - N/A   Overcast
7:50 AM 46.4 °F - 44.6 °F 93% 30.10 in 1.0 mi Calm Calm - N/A   Overcast
7:53 AM 46.0 °F - 45.0 °F 96% 30.12 in 0.8 mi Calm Calm - N/A   Overcast
8:12 AM 44.6 °F 43.1 °F 44.6 °F 100% 30.10 in 1.8 mi SW 3.5 mph - N/A   Overcast
8:21 AM 44.6 °F - 44.6 °F 100% 30.11 in 2.5 mi Calm Calm - N/A   Overcast
8:31 AM 46.4 °F - 44.6 °F 93% 30.11 in 1.2 mi Calm Calm - N/A   Overcast
8:53 AM 46.0 °F - 45.0 °F 96% 30.13 in 1.8 mi Calm Calm - N/A   Overcast
9:03 AM 46.4 °F - 44.6 °F 93% 30.12 in 2.0 mi Calm Calm - N/A   Overcast
9:18 AM 46.4 °F - 44.6 °F 93% 30.12 in 3.0 mi Calm Calm - N/A   Overcast
9:53 AM 46.9 °F - 45.0 °F 93% 30.15 in 6.0 mi Calm Calm - N/A   Overcast
10:53 AM 48.0 °F - 45.0 °F 89% 30.15 in 6.0 mi NE 3.5 mph - N/A   Overcast
11:38 AM 48.2 °F - 44.6 °F 87% 30.11 in 6.0 mi East 3.5 mph - N/A   Overcast
11:53 AM 48.0 °F - 45.0 °F 89% 30.12 in 5.0 mi Calm Calm - N/A   Overcast
12:53 PM 50.0 °F - 46.0 °F 86% 30.09 in 5.0 mi Calm Calm - N/A   Overcast
1:53 PM 52.0 °F - 46.9 °F 83% 30.09 in 5.0 mi North 4.6 mph - N/A   Haze
2:14 PM 53.6 °F - 46.4 °F 77% 30.07 in 5.0 mi Calm Calm - N/A   Haze
2:53 PM 55.0 °F - 48.0 °F 77% 30.07 in 6.0 mi SSE 3.5 mph - N/A   Haze
3:00 PM 55.4 °F - 48.2 °F 77% 30.05 in 6.0 mi SE 4.6 mph - N/A   Haze
3:53 PM 57.0 °F - 48.0 °F 72% 30.08 in 7.0 mi Variable 3.5 mph - N/A   Clear
4:43 PM 55.4 °F - 48.2 °F 77% 30.07 in 10.0 mi NNE 5.8 mph - N/A   Mostly Cloudy
4:53 PM 54.0 °F - 46.9 °F 77% 30.09 in 10.0 mi NE 8.1 mph - N/A   Overcast
5:53 PM 52.0 °F - 46.9 °F 83% 30.13 in 10.0 mi North 5.8 mph - N/A   Overcast
6:27 PM 51.8 °F - 46.4 °F 82% 30.12 in 10.0 mi North 8.1 mph - N/A   Mostly Cloudy
6:53 PM 50.0 °F - 46.0 °F 86% 30.14 in 10.0 mi North 6.9 mph - N/A   Mostly Cloudy
7:36 PM 50.0 °F - 46.4 °F 87% 30.15 in 10.0 mi North 6.9 mph - N/A   Overcast
7:53 PM 50.0 °F - 46.0 °F 86% 30.18 in 10.0 mi North 5.8 mph - N/A   Overcast
8:53 PM 48.9 °F - 46.0 °F 90% 30.20 in 9.0 mi NNW 6.9 mph - 0.00 in   Overcast
9:53 PM 48.9 °F - 46.0 °F 90% 30.21 in 7.0 mi Calm Calm - 0.01 in Rain Light Rain
10:53 PM 48.9 °F - 46.9 °F 93% 30.22 in 6.0 mi NW 11.5 mph - 0.00 in Rain Light Rain
11:09 PM 48.2 °F - 46.4 °F 93% 30.21 in 5.0 mi NNW 5.8 mph - 0.01 in Rain Light Rain
11:13 PM 48.2 °F - 46.4 °F 93% 30.21 in 4.0 mi NNW 5.8 mph - 0.01 in Rain Light Rain
11:23 PM 48.2 °F - 46.4 °F 93% 30.22 in 4.0 mi NNW 8.1 mph - 0.01 in Rain Light Rain
11:53 PM 48.0 °F - 46.9 °F 96% 30.24 in 4.0 mi NW 8.1 mph - 0.04 in Rain Light Rain
11:59 PM 48.2 °F - 46.4 °F 93% 30.22 in 4.0 mi NNW 8.1 mph - 0.00 in Rain Light Rain